Starlink 5902

operational
NORAD ID: 55998 Int'l Des: 2023-042 Owner: SPXS Country: US Constellation: starlink
LEOCIRCULAR

About Starlink 5902

Description loading...

Live Position

Loading 3D Globe...

Upcoming Passes

Altitude History

Altitude vs Time

uPlot chart will show altitude changes over time

Two-Line Element Set

1 55998U 23042N 25302.67337044 .00001067 00000-0 94025-4 0 9991
2 55998 43.0044 47.8877 0001513 260.9202 99.1469 15.02536484143201
Epoch: Oct 29, 2025 • Age: 27 hours

Current Status

Altitude 558.4 km
Velocity 7.58 km/s
Sub-Earth Point 11.66°N, 84.68°E
Launch Date Mar 24, 2023
Age 2.6 years
Type internet

Technical Details

Classification Payload
Mass 305.00 kg
Dry Mass 290.00 kg
Total Mass 305.00 kg
Length 0.20 m
Diameter 2.80 m
Span 9.00 m
Shape Box + pan
Manufacturer SPXS
Bus Type Starlink
Phase Status In Orbit
Owner/State SPXS/US

Large Constellations

Loading constellations...